{"data":{"norad_id":64332,"epoch":"2026-05-25T00:11:38.988096Z","epoch_age_seconds":64421,"freshness":"FRESH","line1":"1 64332U 25124R   26145.00809014  .00020571  00000+0  75530-3 0  9999","line2":"2 64332  43.0002  50.5808 0001492 245.2501 114.8196 15.27566246 53451","mean_motion":15.27566246,"eccentricity":0.0001492,"inclination_deg":43.0002,"raan_deg":50.5808,"arg_perigee_deg":245.2501,"mean_anomaly_deg":114.8196,"bstar":0.0007553,"rev_number":5345,"period_min":94.267597478715,"perigee_km":482.06658566235,"apogee_km":484.11397588294,"semimajor_km":6861.2272807726,"source":"CELESTRAK","updated_at":"2026-05-25T13:38:20.397388Z"}}